sat.trackr.live / text

‹ back to catalog

STARLINK-37800

NORAD 69436 · 2026-126S

PAYLOAD ACTIVE UNKNOWN

§ Identity

Operator
Country
US
Launch date
2026-06-07
Launch site
AFWTR
Launch vehicle
Mass (kg)
RCS (m²)

Purposes: comms

External: N2YO · Heavens-Above · Gunter

§ Orbital elements

Epoch: 2026-09-19T09:20:20.349024Z

Period
93.91 min
Inclination
97.2844°
Eccentricity
0.0001996
Mean motion
15.33442357 rev/d
Perigee alt
464.2 km
Apogee alt
466.9 km
Semi-major
6,843.7 km
B*
4.5941e-4
RAAN
123.6330°
Arg perigee
90.2966°
Mean anomaly
269.8506°
Rev number
1,735

§ Raw data

STARLINK-378001 69436U 26126S   26262.38912441  .00014785  00000+0  45941-3 0  99952 69436  97.2844 123.6330 0001996  90.2966 269.8506 15.33442357 17358

JSON: /api/v1/satellites/69436 · /tle

For live sub-satellite position, see the globe view (requires WebGL).

§ Visibility from observer

Set your observer location to see the next 7 days of passes ≥ 10°. The values pass through the URL so the page stays shareable.

No JS? Fill the form by hand. The geolocation button needs JavaScript.